Total_Precipitation_Accumulation
0.04 0.07 0.11 0.16 0.18 0.21 0.25 0.34 0.40 0.43 0.41 0.49 0.60 0.71 0.96 1.16 1.40 1.46 1.55 1.83 2.08 2.31 2.46 2.79 3.15 3.47 3.99 4.13 4.06 4.12 4.27 4.49 4.64 4.94 5.04 5.31 5.63 5.83 5.99 5.95 5.74 5.79 5.81 5.91
0.08 0.10 0.11 0.15 0.15 0.17 0.27 0.42 0.46 0.44 0.41 0.51 0.70 0.87 1.07 1.29 1.44 1.41 1.54 1.73 1.96 2.39 2.72 2.91 3.09 3.52 4.04 4.29 4.36 4.43 4.61 4.93 5.13 5.42 5.89 6.18 6.48 6.73 6.93 6.97 6.53 6.24 6.12 6.02
0.08 0.10 0.10 0.12 0.13 0.15 0.21 0.30 0.40 0.46 0.49 0.58 0.81 1.20 1.41 1.55 1.63 1.75 1.96 2.13 2.25 2.50 2.88 2.97 3.02 3.44 3.80 4.05 4.23 4.47 4.73 5.20 5.76 6.15 6.57 6.90 7.13 7.16 6.98 6.68 6.61 6.40 6.23 6.11
0.10 0.07 0.08 0.11 0.14 0.17 0.20 0.23 0.33 0.40 0.56 0.71 0.85 1.58 1.96 1.96 1.96 2.17 2.36 2.39 2.47 2.58 2.79 2.93 3.04 3.34 3.68 3.98 4.18 4.56 5.11 5.85 6.40 6.80 7.33 7.85 7.98 7.69 7.33 6.89 6.44 6.16 5.92 5.63
0.12 0.10 0.12 0.13 0.15 0.17 0.19 0.21 0.28 0.34 0.45 0.66 0.91 1.46 2.34 2.39 2.36 2.52 2.67 2.46 2.46 2.38 2.46 2.71 2.86 3.08 3.59 3.89 4.15 4.53 5.15 5.93 6.64 7.43 8.04 8.47 8.33 7.94 7.50 6.81 6.22 5.76 5.39 5.02
0.12 0.10 0.11 0.10 0.11 0.15 0.16 0.20 0.29 0.36 0.49 0.80 0.87 1.31 2.14 2.46 2.61 2.72 2.61 2.35 2.28 2.19 2.22 2.34 2.51 2.87 3.40 3.69 3.88 4.25 4.91 5.71 6.37 6.96 7.47 7.73 7.61 7.40 6.85 6.16 5.54 5.13 4.83 4.48
0.20 0.19 0.13 0.09 0.10 0.16 0.19 0.29 0.63 0.87 1.01 1.02 0.80 1.17 1.92 2.18 2.30 2.24 2.25 2.27 2.12 2.16 2.10 2.11 2.27 2.55 2.97 3.13 3.47 3.87 4.34 5.03 5.46 5.79 6.15 6.37 6.48 6.29 5.94 5.43 4.96 4.54 4.08 3.72
0.34 0.33 0.17 0.11 0.11 0.19 0.22 0.28 0.72 1.09 1.13 1.13 1.09 1.58 2.15 2.08 1.97 1.93 1.88 1.92 1.98 2.12 2.14 2.12 2.28 2.49 2.76 2.94 3.09 3.24 3.52 3.93 4.11 4.16 4.40 4.69 4.76 4.72 4.57 4.29 3.90 3.62 3.27 2.90
0.45 0.35 0.18 0.12 0.11 0.16 0.23 0.24 0.36 0.70 0.81 1.24 1.53 2.02 2.52 2.22 2.06 2.02 1.94 1.80 1.78 1.85 1.96 2.14 2.26 2.28 2.30 2.33 2.40 2.50 2.68 2.84 2.91 3.00 3.10 3.26 3.31 3.29 3.25 3.12 2.86 2.64 2.48 2.19
0.39 0.35 0.19 0.14 0.13 0.17 0.21 0.28 0.44 0.81 1.28 1.56 1.80 2.50 3.14 2.85 2.38 2.06 1.81 1.61 1.56 1.66 1.78 1.98 2.13 2.12 2.11 2.01 2.07 2.15 2.25 2.34 2.35 2.40 2.41 2.37 2.42 2.43 2.44 2.31 2.18 2.12 2.02 1.90
0.36 0.40 0.25 0.20 0.25 0.26 0.30 0.37 0.54 0.84 1.03 1.54 2.08 2.86 2.91 3.07 2.87 2.35 2.01 1.84 1.76 1.69 1.78 1.97 2.00 1.95 1.95 1.91 1.94 2.00 1.99 2.02 2.00 1.97 2.01 2.01 1.93 1.94 2.02 2.02 1.90 1.87 1.82 1.68
0.36 0.50 0.47 0.33 0.28 0.26 0.29 0.37 0.56 1.11 1.25 1.31 2.00 3.05 2.76 2.99 3.11 2.78 2.51 2.36 2.25 2.05 1.92 1.92 1.86 1.81 1.75 1.80 1.85 1.93 1.88 1.84 1.89 1.79 1.72 1.72 1.77 1.75 1.77 1.75 1.65 1.63 1.68 1.60
0.41 0.64 1.03 0.98 0.76 0.48 0.39 0.40 0.48 0.66 1.09 1.43 2.10 3.26 3.15 2.99 3.05 2.95 2.68 2.55 2.60 2.46 2.31 2.14 1.94 1.87 1.82 1.79 1.74 1.65 1.66 1.67 1.71 1.72 1.68 1.63 1.67 1.72 1.71 1.65 1.63 1.59 1.63 1.61
0.37 0.67 1.26 1.66 1.25 0.80 0.58 0.45 0.47 0.66 1.21 1.47 1.88 2.64 3.00 3.01 2.99 3.00 3.09 3.05 3.01 2.74 2.52 2.37 2.15 2.09 1.99 1.90 1.82 1.71 1.68 1.56 1.55 1.58 1.60 1.64 1.69 1.74 1.74 1.73 1.74 1.67 1.59 1.53
0.51 0.94 0.92 0.82 0.73 0.67 0.58 0.56 0.55 0.61 0.78 1.22 1.69 2.19 2.69 2.84 2.93 3.17 3.33 3.26 3.00 2.61 2.38 2.34 2.30 2.28 2.19 2.01 1.92 1.77 1.67 1.53 1.51 1.49 1.53 1.60 1.64 1.67 1.62 1.67 1.67 1.65 1.64 1.52
0.62 0.96 0.95 0.83 0.66 0.72 0.72 0.76 0.77 0.75 0.84 1.17 1.66 2.40 2.70 2.86 3.09 3.16 3.18 3.27 3.22 2.79 2.51 2.40 2.30 2.23 2.25 2.11 1.97 1.83 1.75 1.69 1.63 1.59 1.55 1.52 1.53 1.51 1.50 1.50 1.52 1.47 1.44 1.45
0.68 1.01 1.36 1.24 0.76 1.02 1.42 1.24 1.09 1.08 1.13 1.37 1.82 2.24 2.37 2.55 2.77 3.03 3.24 3.27 3.39 3.06 2.71 2.50 2.42 2.31 2.26 2.31 2.28 2.10 1.91 1.80 1.57 1.50 1.47 1.39 1.35 1.34 1.38 1.34 1.35 1.39 1.46 1.46
0.62 1.06 1.33 1.35 1.49 2.02 1.68 1.16 1.06 1.20 1.32 1.33 1.57 1.69 1.96 2.23 2.42 2.73 2.99 3.32 3.48 3.22 2.93 2.67 2.50 2.38 2.32 2.33 2.31 2.09 1.89 1.71 1.53 1.48 1.41 1.31 1.23 1.23 1.33 1.30 1.32 1.38 1.40 1.37
0.50 1.02 1.46 1.65 2.03 2.09 1.71 1.16 1.05 1.41 1.73 1.36 1.40 1.47 1.55 1.68 1.97 2.53 2.60 2.76 3.10 3.13 2.97 2.77 2.54 2.40 2.35 2.20 2.11 2.02 1.78 1.67 1.59 1.45 1.38 1.24 1.17 1.23 1.26 1.21 1.24 1.33 1.31 1.29
0.62 0.95 1.52 1.77 2.28 2.54 2.05 1.08 0.81 1.26 2.25 1.60 1.43 1.54 1.57 1.80 2.23 2.31 2.08 2.14 2.36 2.57 2.64 2.57 2.37 2.22 2.21 2.06 1.95 1.97 1.86 1.67 1.60 1.47 1.38 1.25 1.23 1.24 1.26 1.29 1.27 1.24 1.23 1.21
1.15 1.33 1.61 1.87 2.26 2.30 1.33 0.87 1.05 2.15 2.58 1.74 1.43 1.57 1.80 2.13 2.14 1.78 1.58 1.72 1.90 2.01 2.15 2.20 2.19 2.17 2.05 1.85 1.83 2.00 2.11 1.92 1.60 1.48 1.40 1.37 1.37 1.31 1.29 1.34 1.33 1.27 1.17 1.17
1.33 1.61 1.77 1.96 2.46 2.46 1.15 0.96 1.64 1.98 1.52 1.35 1.37 1.44 1.49 1.52 1.41 1.32 1.37 1.52 1.57 1.68 1.80 1.95 2.10 2.07 2.02 1.90 1.85 1.85 1.90 1.86 1.69 1.58 1.54 1.47 1.39 1.31 1.27 1.38 1.33 1.30 1.34 1.29
1.25 1.53 1.72 1.97 2.35 1.86 1.17 1.08 1.13 1.13 1.24 1.24 1.32 1.33 1.24 1.22 1.24 1.21 1.29 1.48 1.58 1.62 1.71 1.80 1.90 1.93 1.91 1.81 1.83 1.83 1.77 1.61 1.58 1.70 1.65 1.56 1.43 1.36 1.37 1.42 1.34 1.25 1.35 1.31
1.29 1.06 1.23 1.50 1.61 1.45 1.31 1.10 1.03 1.05 1.09 1.13 1.23 1.25 1.17 1.19 1.14 1.15 1.29 1.45 1.52 1.50 1.54 1.65 1.76 1.81 1.78 1.65 1.63 1.65 1.56 1.55 1.59 1.60 1.56 1.55 1.49 1.36 1.27 1.27 1.21 1.18 1.20 1.25
1.30 1.15 1.31 1.57 1.56 1.49 1.48 1.32 1.20 1.21 1.17 1.13 1.20 1.26 1.21 1.19 1.22 1.18 1.29 1.32 1.36 1.39 1.42 1.50 1.68 1.75 1.67 1.52 1.42 1.37 1.46 1.56 1.64 1.54 1.39 1.36 1.31 1.23 1.20 1.14 1.06 1.03 0.95 0.97
1.20 1.26 1.41 1.66 1.52 1.50 1.46 1.29 1.22 1.41 1.48 1.35 1.30 1.26 1.16 1.15 1.23 1.13 1.12 1.12 1.15 1.21 1.29 1.42 1.50 1.55 1.49 1.40 1.35 1.28 1.35 1.45 1.50 1.42 1.34 1.29 1.17 1.09 1.02 1.00 0.99 1.01 0.91 0.84